Theta_e
291 288 285 287 288 286 286 283 282 283 288 286 286 287 291 291 290 291 292 292 292 292 297 295 295 296 306 310 316 322 325 328 328 329 328 327 326 326 325 324 322 321 321 319
288 284 290 290 288 286 285 283 281 285 288 288 286 287 290 290 291 292 293 292 292 292 292 293 294 294 295 305 313 318 323 326 327 330 330 329 328 327 327 326 323 322 321 319
285 287 290 289 286 285 282 282 281 283 285 286 283 283 285 287 288 290 292 292 292 293 293 292 293 293 292 293 304 313 319 324 327 328 329 315 314 312 313 315 323 322 322 320
285 288 288 286 285 286 282 286 286 284 283 279 282 277 281 285 287 288 290 290 290 289 291 292 293 292 291 292 294 305 313 320 324 327 327 324 323 321 321 323 321 322 322 321
284 287 286 285 286 288 285 287 286 284 281 280 279 278 281 283 285 288 290 289 289 291 291 290 291 292 292 293 293 300 309 314 319 325 327 325 324 325 316 313 316 316 314 319
285 288 288 288 287 289 289 286 285 282 280 277 280 280 278 282 285 285 287 288 291 292 292 293 294 295 296 300 300 303 309 313 318 324 325 324 323 313 310 309 312 312 310 308
285 286 289 289 287 288 285 283 277 276 275 276 279 278 281 285 287 286 288 288 290 292 292 293 293 294 296 299 302 305 310 311 314 317 318 319 320 313 313 311 312 308 307 303
281 280 288 290 287 285 284 284 278 272 273 275 279 277 282 287 288 290 291 292 292 292 292 292 292 293 295 296 299 303 308 308 309 310 312 311 311 312 311 309 309 308 306 305
282 281 288 289 290 290 285 282 285 278 269 274 278 281 286 289 289 290 291 291 290 290 291 291 292 293 294 296 296 298 301 305 307 308 306 307 307 307 306 303 303 302 300 297
286 281 286 288 290 289 287 289 281 279 270 270 276 278 281 284 287 289 289 290 290 291 292 292 292 293 294 294 295 296 298 299 300 303 303 303 302 302 300 298 297 295 294 292
288 285 283 287 285 284 284 283 283 284 281 276 272 278 283 285 289 289 289 290 291 291 291 291 292 292 293 293 294 295 295 297 297 298 298 298 297 296 295 294 294 293 291 290
290 286 281 283 286 288 287 285 285 279 276 278 277 281 288 287 289 290 290 291 291 291 291 291 291 292 293 293 293 294 294 295 295 296 296 296 295 294 293 293 292 291 291 289
291 285 278 281 282 285 284 285 286 285 282 277 275 281 288 288 288 289 289 290 292 289 289 291 291 291 292 292 292 293 293 294 294 294 294 294 293 293 292 292 291 290 289 288
294 285 283 281 281 286 284 285 287 287 281 281 281 281 285 287 289 290 291 290 289 289 290 290 290 290 291 291 291 291 292 293 294 294 293 293 293 292 293 292 290 289 288 288
293 282 284 285 285 285 283 282 286 286 286 282 285 283 286 289 291 290 291 291 290 290 291 291 291 291 291 290 290 291 291 291 291 292 292 292 292 291 291 290 289 288 287 286
293 285 287 286 288 287 285 287 285 285 286 287 286 285 288 293 291 290 292 292 291 291 290 291 291 291 290 290 289 290 289 289 289 290 288 289 288 289 289 288 288 287 286 285
288 285 284 282 286 285 281 286 287 286 288 287 284 289 291 290 291 290 290 290 289 289 289 289 289 289 288 288 288 287 288 287 287 287 287 287 287 287 287 286 285 282 280 278
286 286 285 280 283 277 283 284 291 289 290 289 287 286 290 290 288 288 287 287 287 287 287 288 288 288 287 286 286 285 285 286 286 286 285 285 285 284 282 279 279 277 276 277
291 287 283 280 280 280 282 282 285 286 287 292 290 288 287 286 286 285 287 287 287 287 287 287 287 287 286 285 284 284 284 284 284 284 284 283 279 277 276 276 275 274 274 274
288 288 286 278 275 272 278 280 286 288 281 285 291 288 286 286 283 283 286 286 286 286 286 286 286 285 284 284 284 283 283 283 282 283 283 279 277 274 274 275 274 273 272 275
283 284 282 279 275 274 280 283 286 276 280 283 287 289 286 283 286 286 285 285 285 285 285 285 284 284 284 284 283 282 282 282 282 282 278 276 275 274 273 272 272 270 270 273
281 280 280 277 276 276 281 284 282 284 282 284 284 285 284 282 281 282 282 282 283 283 283 283 282 282 282 282 281 281 280 281 280 278 276 274 271 273 274 269 269 269 269 269
278 281 279 280 281 282 281 282 284 284 283 283 282 282 282 281 281 281 281 281 282 282 282 281 280 280 280 279 278 276 279 278 277 274 275 274 274 275 274 271 272 272 270 270
275 278 278 280 281 281 283 282 282 284 284 283 281 281 281 280 281 281 281 282 281 280 279 277 276 276 276 275 276 274 275 274 270 271 272 273 271 272 270 272 272 269 268 268
278 279 275 275 279 279 281 282 284 284 282 281 281 281 281 281 279 281 280 279 278 277 274 273 273 273 272 271 271 269 268 266 271 273 271 271 270 268 271 271 272 272 272 273
278 278 278 277 281 283 283 282 283 282 281 282 280 279 280 281 281 278 278 276 274 272 270 270 268 267 268 267 267 265 261 261 262 268 273 274 273 271 271 271 276 282 283 284
Wind_Speed
2 4 7 6 5 2 5 4 4 3 1 2 6 8 14 7 6 9 10 10 10 11 14 7 9 9 9 8 12 14 13 14 11 11 10 9 9 8 8 8 11 12 12 12
4 5 8 6 6 4 4 3 2 3 1 3 5 10 12 9 9 9 9 10 11 8 9 7 9 8 10 14 16 15 16 15 14 11 11 8 9 7 8 8 10 12 12 14
8 3 7 8 5 6 3 5 4 6 3 2 6 9 7 6 5 6 9 11 9 12 12 9 9 10 8 11 13 15 17 17 16 16 9 3 4 3 2 4 8 12 15 16
4 3 7 4 5 7 6 8 5 3 3 4 2 9 6 5 8 7 11 10 10 8 8 8 9 8 7 9 7 10 12 14 13 15 13 15 11 10 8 9 7 9 14 15
7 9 6 5 8 8 7 6 6 3 3 2 3 2 8 3 5 11 10 7 7 6 8 8 7 7 6 4 6 8 8 8 10 14 14 13 13 9 3 3 7 7 5 10
5 1 4 7 3 5 10 7 7 5 3 3 8 8 6 5 8 4 2 4 7 8 7 7 6 5 3 4 2 5 8 7 9 15 15 15 15 6 5 4 6 6 4 2
2 3 2 4 8 5 3 7 2 3 2 8 3 3 5 6 10 6 8 9 8 6 6 7 8 7 7 7 5 4 8 7 7 11 11 9 9 8 8 7 6 5 4 3
8 4 9 5 8 11 7 9 8 9 6 3 2 10 9 9 4 5 3 5 6 6 4 5 6 5 6 7 7 5 6 6 6 6 6 5 6 5 4 5 4 4 4 3
7 6 1 2 5 12 6 8 5 8 3 4 6 8 9 7 4 2 4 3 4 3 1 2 5 5 5 6 6 4 4 4 4 4 4 4 3 4 3 3 2 2 1 2
8 4 1 3 4 2 8 8 4 3 4 4 6 6 9 2 6 3 4 5 5 5 5 5 5 6 4 5 4 5 5 5 5 5 4 4 5 4 4 4 4 4 3 3
6 4 1 4 7 10 4 4 2 5 6 7 3 9 8 9 6 7 3 2 4 5 4 4 4 3 3 3 4 4 5 5 5 4 3 4 3 2 3 2 1 2 2 3
7 5 5 8 1 1 3 10 8 6 6 3 3 14 3 4 7 7 5 3 4 3 3 3 2 2 4 4 3 3 3 5 5 4 3 2 2 1 1 2 3 3 4 4
11 2 2 7 3 3 4 4 4 5 4 8 7 14 3 3 3 1 1 3 3 3 3 3 3 4 4 3 2 2 2 4 4 3 2 2 1 2 5 4 4 4 4 4
6 5 11 15 4 8 7 6 9 7 3 8 17 3 4 7 7 5 4 3 2 2 2 2 3 3 2 2 2 4 5 5 4 3 2 1 3 4 5 4 4 4 4 5
4 6 7 3 6 3 2 4 10 17 21 12 23 17 10 14 14 10 5 2 4 4 5 4 3 5 5 4 3 3 4 5 3 3 2 5 3 4 4 4 4 3 3 4
2 3 4 7 6 4 4 8 7 11 13 21 15 20 5 12 4 6 7 7 6 6 5 5 5 5 5 5 5 6 6 6 6 5 5 6 5 4 5 5 5 5 4 4
8 5 4 4 9 8 6 28 19 7 10 12 19 18 7 5 8 7 6 6 7 6 5 4 6 4 4 5 5 5 3 1 5 6 5 4 5 6 5 4 4 3 4 2
5 5 4 3 4 7 5 1 21 23 17 14 8 2 6 6 4 6 5 7 7 5 5 3 3 3 3 3 5 4 6 7 8 7 5 6 6 5 4 2 3 2 0 3
4 6 2 5 5 7 4 6 10 12 17 21 18 7 4 6 6 3 4 4 6 6 4 3 3 2 1 3 3 5 5 4 4 5 5 5 3 4 3 3 3 2 2 3
4 4 7 3 6 11 4 2 5 7 12 7 19 14 11 8 6 5 7 5 5 4 3 4 2 2 3 4 4 5 5 6 6 6 6 4 4 3 4 3 3 2 2 3
6 5 12 5 4 9 5 4 4 7 8 4 3 8 13 5 2 8 8 5 4 3 4 4 3 2 2 3 3 4 5 5 5 6 4 4 3 4 3 3 1 1 2 2
8 8 4 3 3 11 5 4 9 3 2 3 5 6 9 9 7 8 8 6 5 5 5 5 5 5 4 5 5 5 6 5 6 5 5 4 3 3 2 1 1 1 1 2
4 7 7 8 7 4 5 4 1 1 4 4 7 8 11 10 7 7 6 6 5 6 5 4 5 5 6 7 5 3 6 6 6 5 5 4 4 3 2 2 3 2 1 2
3 2 4 4 5 4 5 1 3 6 5 6 6 8 6 10 9 7 6 5 5 5 5 4 5 5 4 5 5 5 6 7 5 6 6 5 5 5 3 2 2 2 2 2
4 7 6 3 1 2 4 7 7 7 9 9 6 6 8 9 6 7 6 6 5 5 3 3 4 4 4 5 6 6 7 7 6 7 5 5 3 4 5 4 4 4 5 5
6 8 6 7 10 7 8 9 8 10 8 9 8 5 4 5 7 5 6 5 4 3 2 2 2 3 5 5 5 5 5 6 5 5 5 6 6 5 4 4 6 9 13 15
Wind_Direction
1 127 195 187 176 141 124 134 177 224 287 202 232 266 277 283 286 271 264 260 257 245 258 229 229 221 207 198 197 197 191 195 181 193 190 195 193 188 187 189 191 185 182 179
65 222 199 130 133 115 117 130 227 289 39 154 330 274 271 266 254 236 241 252 246 265 272 266 254 225 206 209 205 200 201 190 192 195 199 202 198 201 197 188 191 192 190 183
158 210 149 139 140 141 157 163 188 221 355 65 335 284 266 293 264 276 262 249 265 245 272 265 256 242 220 212 200 203 201 194 193 193 181 89 79 81 132 178 190 198 194 195
206 143 130 124 172 134 190 199 164 171 92 237 21 284 293 273 299 300 280 265 267 291 262 256 269 269 243 242 212 203 204 199 195 184 183 192 197 199 207 198 200 201 199 195
231 160 143 173 188 167 216 133 148 104 116 52 321 337 270 348 292 268 266 309 315 320 300 303 300 295 284 262 213 199 189 185 182 186 193 198 210 217 141 149 177 199 210 203
158 189 160 188 98 145 147 78 52 60 92 288 199 173 260 210 217 275 267 349 336 329 356 360 351 3 13 21 95 178 174 184 175 192 198 205 209 167 153 166 187 194 194 195
104 199 185 138 88 39 90 94 16 349 4 231 338 165 241 241 239 228 285 308 316 336 17 18 18 17 19 22 46 108 142 167 174 193 197 196 205 168 184 181 194 172 184 186
159 229 166 183 166 163 186 158 163 196 198 240 56 235 255 236 325 276 296 313 321 345 6 29 23 20 35 34 32 68 137 128 146 157 173 165 163 175 172 167 174 184 188 190
163 241 62 166 145 144 208 213 167 105 34 64 216 284 291 263 224 53 2 359 351 275 160 36 38 36 33 48 40 53 100 109 118 127 130 164 154 161 176 136 141 170 168 184
199 121 345 151 109 25 160 156 81 1 137 246 265 274 227 153 198 121 21 14 355 15 47 40 27 16 20 34 46 52 80 115 137 134 142 156 167 169 163 150 185 198 190 184
146 116 307 115 211 163 137 182 136 133 165 183 230 248 208 211 155 145 133 83 59 41 32 32 23 18 34 40 35 41 58 80 86 96 105 115 118 119 124 151 196 224 210 198
186 134 161 199 278 297 310 200 160 159 227 248 164 257 7 183 155 142 138 75 60 55 50 47 73 62 63 76 55 55 59 79 77 76 81 84 84 81 216 197 226 213 231 205
162 198 66 344 350 3 216 192 152 110 89 205 146 253 360 125 166 201 156 349 356 358 42 16 51 94 84 64 79 69 67 74 78 73 64 55 133 216 247 240 242 228 222 220
121 129 198 216 211 145 195 200 192 168 169 218 234 214 211 217 209 223 250 250 308 81 40 33 49 29 63 107 81 54 33 29 27 35 59 309 296 265 263 261 246 245 237 233
121 194 181 167 140 99 143 166 191 201 221 194 251 234 192 202 203 208 225 167 131 109 72 62 57 33 21 50 77 97 80 57 23 38 3 312 300 295 299 289 267 245 232 249
128 228 193 240 206 188 278 244 207 244 240 243 255 253 174 207 136 170 205 171 161 139 120 91 61 49 39 24 20 27 26 23 15 23 18 343 340 327 321 317 305 289 252 228
155 150 147 226 168 161 239 226 227 223 214 224 232 248 168 176 196 206 194 164 155 137 107 87 82 63 27 10 10 29 15 8 34 25 11 343 353 0 335 324 289 259 253 163
150 155 169 126 131 209 233 88 209 216 229 213 234 128 187 204 126 126 136 138 120 112 99 80 76 76 52 12 10 352 15 22 22 12 359 3 3 329 335 312 269 276 265 223
180 152 178 173 208 309 251 188 153 174 247 227 223 167 138 132 87 56 140 141 146 149 150 150 144 128 54 33 4 13 23 16 13 5 357 349 345 325 333 324 308 250 200 215
197 177 195 148 182 207 264 191 141 103 275 214 192 178 162 158 164 201 169 142 130 141 164 150 128 74 34 10 10 14 6 359 0 352 341 328 333 323 313 306 306 259 237 242
178 188 214 189 213 283 238 173 165 122 243 38 177 160 155 177 268 134 128 112 131 147 124 107 96 77 10 355 7 358 351 350 336 340 321 325 333 305 282 298 297 300 284 299
168 163 181 117 177 253 175 64 170 217 19 118 104 127 116 124 105 110 123 128 118 103 73 49 65 49 30 30 33 10 9 347 339 332 325 324 324 309 300 258 294 306 272 270
199 178 169 182 201 208 228 195 334 149 148 166 131 136 132 128 125 137 129 123 112 103 81 48 46 48 40 26 36 17 343 341 331 325 324 318 314 311 298 303 299 312 239 249
265 181 151 103 213 204 219 175 209 186 157 129 115 123 121 126 137 124 119 111 107 82 61 30 27 35 31 18 15 9 356 353 344 337 329 325 324 314 306 286 236 229 256 258
183 142 159 280 265 97 235 220 187 141 123 117 112 125 138 129 129 129 124 113 97 78 41 36 35 22 356 358 5 10 3 354 349 334 327 328 309 306 304 266 247 232 230 208
187 176 170 215 187 182 205 183 161 150 154 146 132 115 68 110 124 105 103 85 82 57 31 40 34 357 344 348 350 6 9 6 355 331 333 329 321 316 300 297 297 267 269 268